Location: Miles
(41.4492°N, 81.6087°W)
Time: 22:13:33
(UTC+00:00)

Vanguard 2 Rocket - Pass Details

Date: 20 September 2024
Orbit: 553 x 3298 km, 32.9° (Epoch: 12 October)

Event Time Altitude Azimuth Distance (km) Brightness Sun altitude
Rises 08:06:45 0° 263° (W) 4,461 - -33.3°
Reaches altitude 10° 08:09:16 10° 259° (WSW) 3,772 - -32.9°
Exits shadow 08:17:16 53° 216° (SW) 2,500 8.6 -31.7°
Maximum altitude 08:19:31 58° 183° (S) 2,557 8.8 -31.4°
Drops below altitude 10° 08:36:34 10° 111° (ESE) 5,993 11.5 -28.7°
Sets 08:41:48 0° 109° (ESE) 7,190 12.0 -27.8°
